Volver al catálogo

STARLINK-5243

ActivoComunicacionesVLEO
NORAD 54167·PAYLOAD·🇺🇸 United States

Lanzado Oct 28, 2022 desde Vandenberg Space Force Base

Loading…

Próximos Pases (próximas 24 horas)

TLE

ActualizadoSource: CelesTrak SupGP

Época: Sep 14, 2026, 21:04 UTC

1 54167C 22141L   26257.87826389  .00722940  00000+0  31055-1 0  2571
2 54167  53.1608 243.4706 0001243  94.0400  83.4020 15.21798863    19

Sigue STARLINK-5243 en tiempo real con AllMySat

Download on the App Store